Simultaneous Nadir Overpasses (SNOs) Predictions

Prediction of SNOs between GOES-15 and NOAA-20 Satellite Orbit:

Table of predicted SNOs for the next 14.0 days since TLE Epoch: 2/4/2023
Index Date Time (GOES-15) GOES-15 Lat,Lon NOAA-20 Lat,Lon Distance(km) Time Diff (sec)
1 02/05/2023 10:05:13 0.05,-128.29 0.50,-130.29 228.40 80
2 02/06/2023 09:49:08 0.06,-128.29 -0.54,-125.76 288.16 80
3 02/07/2023 22:11:03 -0.06,-128.25 -0.70,-131.05 319.46 80
4 02/08/2023 21:49:39 -0.06,-128.25 0.35,-126.53 196.65 80
5 02/10/2023 10:11:25 0.06,-128.27 0.88,-131.78 401.20 80
6 02/11/2023 09:55:21 0.06,-128.26 -0.16,-127.25 114.90 80
7 02/12/2023 22:17:16 -0.06,-128.22 -1.06,-132.54 493.15 80
8 02/13/2023 21:55:52 -0.07,-128.21 -0.02,-128.02 22.15 80
9 02/16/2023 09:58:53 0.08,-128.19 0.19,-128.75 62.65 80
10 02/17/2023 09:42:48 0.08,-128.18 -0.80,-124.21 452.25 80
